Time,TemperatureF,DewpointF,PressureIn,WindDirection,WindDirectionDegrees,WindSpeedMPH,WindSpeedGustMPH,Humidity,HourlyPrecipIn,Conditions,Clouds,dailyrainin,SolarRadiationWatts/m^2,SoftwareType,DateUTC
2013-03-06 00:01:00,32.7,22.7,30.00,ENE,78,0.0,7.0,66,0.00,,,0.00,0.0,WUHU216DAVISVP2,2013-03-06 06:01:00,
2013-03-06 00:06:00,32.7,23.3,30.00,South,180,0.0,6.0,68,0.00,,,0.00,0.0,WUHU216DAVISVP2,2013-03-06 06:06:00,
2013-03-06 00:11:00,32.7,22.9,30.00,SE,130,0.0,6.0,67,0.00,,,0.00,0.0,WUHU216DAVISVP2,2013-03-06 06:11:00,
2013-03-06 00:16:00,32.7,22.9,30.00,South,171,0.0,6.0,67,0.00,,,0.00,0.0,WUHU216DAVISVP2,2013-03-06 06:16:00,
2013-03-06 00:21:00,32.8,23.8,30.01,ESE,122,1.0,7.0,69,0.00,,,0.00,0.0,WUHU216DAVISVP2,2013-03-06 06:21:00,
2013-03-06 00:26:00,32.8,23.0,30.01,East,88,7.0,7.0,67,0.00,,,0.00,0.0,WUHU216DAVISVP2,2013-03-06 06:26:00,
2013-03-06 00:31:00,33.0,23.6,30.01,ESE,103,0.0,7.0,68,0.00,,,0.00,0.0,WUHU216DAVISVP2,2013-03-06 06:31:00,
2013-03-06 00:36:00,33.0,23.7,30.01,NE,42,2.0,6.0,68,0.00,,,0.00,0.0,WUHU216DAVISVP2,2013-03-06 06:36:00,
2013-03-06 00:41:00,33.0,23.7,30.01,ESE,123,7.0,7.0,68,0.00,,,0.00,0.0,WUHU216DAVISVP2,2013-03-06 06:41:00,
2013-03-06 00:46:00,33.2,23.8,30.01,SSE,167,1.0,7.0,68,0.00,,,0.00,0.0,WUHU216DAVISVP2,2013-03-06 06:46:00,
2013-03-06 00:51:00,33.3,23.6,30.01,ESE,111,2.0,5.0,67,0.00,,,0.00,0.0,WUHU216DAVISVP2,2013-03-06 06:51:00,
2013-03-06 00:56:00,33.4,24.0,30.01,SW,224,0.0,5.0,68,0.00,,,0.00,0.0,WUHU216DAVISVP2,2013-03-06 06:56:00,
2013-03-06 01:01:00,33.4,24.0,30.01,SE,131,1.0,4.0,68,0.00,,,0.00,0.0,WUHU216DAVISVP2,2013-03-06 07:01:00,
2013-03-06 01:06:00,33.5,24.1,30.01,South,179,1.0,5.0,68,0.00,,,0.00,0.0,WUHU216DAVISVP2,2013-03-06 07:06:00,
2013-03-06 01:11:00,33.5,24.8,30.01,SW,229,3.0,5.0,70,0.00,,,0.00,0.0,WUHU216DAVISVP2,2013-03-06 07:11:00,
2013-03-06 01:16:00,33.5,25.2,30.01,North,349,3.0,5.0,71,0.00,,,0.00,0.0,WUHU216DAVISVP2,2013-03-06 07:16:00,
2013-03-06 01:21:00,33.6,25.3,30.02,South,182,0.0,5.0,71,0.00,,,0.00,0.0,WUHU216DAVISVP2,2013-03-06 07:21:00,
2013-03-06 01:26:00,33.6,25.3,30.02,ESE,115,1.0,6.0,71,0.00,,,0.00,0.0,WUHU216DAVISVP2,2013-03-06 07:26:00,
2013-03-06 01:31:00,33.6,25.6,30.02,SSE,161,0.0,6.0,72,0.00,,,0.00,0.0,WUHU216DAVISVP2,2013-03-06 07:31:00,
2013-03-06 01:36:00,33.6,25.3,30.02,ESE,104,0.0,7.0,71,0.00,,,0.00,0.0,WUHU216DAVISVP2,2013-03-06 07:36:00,
2013-03-06 01:41:00,33.6,25.6,30.02,SSE,165,0.0,7.0,72,0.00,,,0.00,0.0,WUHU216DAVISVP2,2013-03-06 07:41:00,
2013-03-06 01:45:00,33.6,25.6,30.02,ESE,107,0.0,2.0,72,0.00,,,0.00,0.0,WUHU216DAVISVP2,2013-03-06 07:45:00,
2013-03-06 01:50:00,33.6,25.9,30.02,NW,326,0.0,6.0,73,0.00,,,0.00,0.0,WUHU216DAVISVP2,2013-03-06 07:50:00,
2013-03-06 01:55:00,33.6,25.9,30.02,NW,318,0.0,6.0,73,0.00,,,0.00,0.0,WUHU216DAVISVP2,2013-03-06 07:55:00,
2013-03-06 02:00:00,33.5,26.1,30.02,ENE,71,1.0,6.0,74,0.00,,,0.00,0.0,WUHU216DAVISVP2,2013-03-06 08:00:00,
2013-03-06 02:05:00,33.5,26.5,30.02,East,90,0.0,4.0,75,0.00,,,0.00,0.0,WUHU216DAVISVP2,2013-03-06 08:05:00,
2013-03-06 02:10:00,33.5,26.1,30.02,SSE,148,3.0,5.0,74,0.00,,,0.00,0.0,WUHU216DAVISVP2,2013-03-06 08:10:00,
2013-03-06 02:15:00,33.5,26.1,30.02,ENE,78,5.0,7.0,74,0.00,,,0.00,0.0,WUHU216DAVISVP2,2013-03-06 08:15:00,
2013-03-06 02:20:00,33.5,26.1,30.02,ESE,122,0.0,7.0,74,0.00,,,0.00,0.0,WUHU216DAVISVP2,2013-03-06 08:20:00,
2013-03-06 02:25:00,33.5,26.1,30.02,SSE,155,0.0,7.0,74,0.00,,,0.00,0.0,WUHU216DAVISVP2,2013-03-06 08:25:00,
2013-03-06 02:30:00,33.6,25.9,30.02,South,169,0.0,7.0,73,0.00,,,0.00,0.0,WUHU216DAVISVP2,2013-03-06 08:30:00,
2013-03-06 02:35:00,33.6,25.9,30.02,SE,128,1.0,5.0,73,0.00,,,0.00,0.0,WUHU216DAVISVP2,2013-03-06 08:35:00,
2013-03-06 02:40:00,33.6,26.2,30.02,SSE,168,1.0,5.0,74,0.00,,,0.00,0.0,WUHU216DAVISVP2,2013-03-06 08:40:00,
2013-03-06 02:45:00,33.6,26.2,30.02,South,175,0.0,5.0,74,0.00,,,0.00,0.0,WUHU216DAVISVP2,2013-03-06 08:45:00,
2013-03-06 02:50:00,33.6,25.9,30.02,NE,41,0.0,7.0,73,0.00,,,0.00,0.0,WUHU216DAVISVP2,2013-03-06 08:50:00,
2013-03-06 02:55:00,33.6,25.9,30.02,ENE,71,1.0,7.0,73,0.00,,,0.00,0.0,WUHU216DAVISVP2,2013-03-06 08:55:00,
2013-03-06 03:00:00,33.6,26.2,30.02,ESE,105,0.0,5.0,74,0.00,,,0.00,0.0,WUHU216DAVISVP2,2013-03-06 09:00:00,
2013-03-06 03:05:00,33.6,26.2,30.02,SE,146,0.0,5.0,74,0.00,,,0.00,0.0,WUHU216DAVISVP2,2013-03-06 09:05:00,
2013-03-06 03:10:00,33.6,26.2,30.02,East,84,2.0,5.0,74,0.00,,,0.00,0.0,WUHU216DAVISVP2,2013-03-06 09:10:00,
2013-03-06 03:15:00,33.6,26.6,30.02,East,84,0.0,5.0,75,0.00,,,0.00,0.0,WUHU216DAVISVP2,2013-03-06 09:15:00,
2013-03-06 03:20:00,33.5,26.1,30.02,SSE,157,0.0,4.0,74,0.00,,,0.00,0.0,WUHU216DAVISVP2,2013-03-06 09:20:00,
2013-03-06 03:25:00,33.5,26.1,30.02,SE,132,0.0,5.0,74,0.00,,,0.00,0.0,WUHU216DAVISVP2,2013-03-06 09:25:00,
2013-03-06 03:30:00,33.5,26.4,30.03,SE,132,1.0,5.0,75,0.00,,,0.00,0.0,WUHU216DAVISVP2,2013-03-06 09:30:00,
2013-03-06 03:35:00,33.5,26.4,30.03,SSE,150,2.0,3.0,75,0.00,,,0.00,0.0,WUHU216DAVISVP2,2013-03-06 09:35:00,
2013-03-06 03:40:00,33.5,26.4,30.03,West,267,0.0,7.0,75,0.00,,,0.00,0.0,WUHU216DAVISVP2,2013-03-06 09:40:00,
2013-03-06 03:45:00,33.5,26.4,30.03,SE,143,1.0,7.0,75,0.00,,,0.00,0.0,WUHU216DAVISVP2,2013-03-06 09:45:00,
2013-03-06 03:50:00,33.5,26.4,30.03,SSW,197,0.0,10.0,75,0.00,,,0.00,0.0,WUHU216DAVISVP2,2013-03-06 09:50:00,
2013-03-06 03:55:00,33.4,26.4,30.04,NE,36,0.0,10.0,75,0.00,,,0.00,0.0,WUHU216DAVISVP2,2013-03-06 09:55:00,
2013-03-06 04:00:00,33.4,26.4,30.04,ENE,76,1.0,7.0,75,0.00,,,0.00,0.0,WUHU216DAVISVP2,2013-03-06 10:00:00,
2013-03-06 04:05:00,33.4,26.7,30.05,SSW,192,2.0,6.0,76,0.00,,,0.00,0.0,WUHU216DAVISVP2,2013-03-06 10:05:00,
2013-03-06 04:10:00,33.4,26.4,30.05,East,88,2.0,5.0,75,0.00,,,0.00,0.0,WUHU216DAVISVP2,2013-03-06 10:10:00,
2013-03-06 04:15:00,33.4,26.7,30.05,NE,56,3.0,5.0,76,0.00,,,0.00,0.0,WUHU216DAVISVP2,2013-03-06 10:15:00,
2013-03-06 04:20:00,33.3,26.2,30.05,East,95,1.0,5.0,75,0.00,,,0.00,0.0,WUHU216DAVISVP2,2013-03-06 10:20:00,
2013-03-06 04:25:00,33.3,26.6,30.05,ENE,71,0.0,4.0,76,0.00,,,0.00,0.0,WUHU216DAVISVP2,2013-03-06 10:25:00,
2013-03-06 04:30:00,33.3,26.9,30.06,SE,139,2.0,4.0,77,0.00,,,0.00,0.0,WUHU216DAVISVP2,2013-03-06 10:30:00,
2013-03-06 04:35:00,33.3,26.2,30.06,ESE,123,0.0,6.0,75,0.00,,,0.00,0.0,WUHU216DAVISVP2,2013-03-06 10:35:00,
2013-03-06 04:40:00,33.3,26.6,30.06,SE,142,4.0,8.0,76,0.00,,,0.00,0.0,WUHU216DAVISVP2,2013-03-06 10:40:00,
2013-03-06 04:45:00,33.3,26.6,30.06,ENE,77,2.0,8.0,76,0.00,,,0.00,0.0,WUHU216DAVISVP2,2013-03-06 10:45:00,
2013-03-06 04:50:00,33.3,26.2,30.06,SSE,148,2.0,6.0,75,0.00,,,0.00,0.0,WUHU216DAVISVP2,2013-03-06 10:50:00,
2013-03-06 04:55:00,33.3,26.2,30.07,ENE,69,1.0,7.0,75,0.00,,,0.00,0.0,WUHU216DAVISVP2,2013-03-06 10:55:00,
2013-03-06 05:00:00,33.3,26.3,30.07,SE,135,1.0,7.0,75,0.00,,,0.00,0.0,WUHU216DAVISVP2,2013-03-06 11:00:00,
2013-03-06 05:05:00,33.3,26.6,30.07,East,94,0.0,7.0,76,0.00,,,0.00,0.0,WUHU216DAVISVP2,2013-03-06 11:05:00,
2013-03-06 05:10:00,33.3,26.2,30.07,SSE,164,0.0,4.0,75,0.00,,,0.00,0.0,WUHU216DAVISVP2,2013-03-06 11:10:00,
2013-03-06 05:15:00,33.3,26.2,30.07,South,190,0.0,4.0,75,0.00,,,0.00,0.0,WUHU216DAVISVP2,2013-03-06 11:15:00,
2013-03-06 05:20:00,33.3,26.5,30.08,SE,126,1.0,4.0,76,0.00,,,0.00,0.0,WUHU216DAVISVP2,2013-03-06 11:20:00,
2013-03-06 05:25:00,33.3,26.5,30.08,ENE,60,0.0,5.0,76,0.00,,,0.00,0.0,WUHU216DAVISVP2,2013-03-06 11:25:00,
2013-03-06 05:30:00,33.3,26.2,30.09,ENE,64,0.0,6.0,75,0.00,,,0.00,0.0,WUHU216DAVISVP2,2013-03-06 11:30:00,
2013-03-06 05:35:00,33.3,26.5,30.09,East,98,0.0,6.0,76,0.00,,,0.00,0.0,WUHU216DAVISVP2,2013-03-06 11:35:00,
2013-03-06 05:40:00,33.2,26.5,30.10,North,5,0.0,4.0,76,0.00,,,0.00,0.0,WUHU216DAVISVP2,2013-03-06 11:40:00,
2013-03-06 05:45:00,33.2,26.2,30.10,ENE,77,0.0,4.0,75,0.00,,,0.00,0.0,WUHU216DAVISVP2,2013-03-06 11:45:00,
2013-03-06 05:50:00,33.2,25.9,30.10,East,82,1.0,4.0,74,0.00,,,0.00,0.0,WUHU216DAVISVP2,2013-03-06 11:50:00,
2013-03-06 05:55:00,33.2,25.8,30.10,NE,34,0.0,4.0,74,0.00,,,0.00,0.0,WUHU216DAVISVP2,2013-03-06 11:55:00,
2013-03-06 06:00:00,33.2,26.2,30.11,ENE,63,5.0,5.0,75,0.00,,,0.00,0.0,WUHU216DAVISVP2,2013-03-06 12:00:00,
2013-03-06 06:05:00,33.2,25.9,30.10,NE,52,1.0,9.0,74,0.00,,,0.00,0.0,WUHU216DAVISVP2,2013-03-06 12:05:00,
2013-03-06 06:10:00,33.3,26.0,30.11,NNW,348,0.0,11.0,74,0.00,,,0.00,0.0,WUHU216DAVISVP2,2013-03-06 12:10:00,
2013-03-06 06:15:00,33.3,26.0,30.11,NE,44,0.0,11.0,74,0.00,,,0.00,0.0,WUHU216DAVISVP2,2013-03-06 12:15:00,
2013-03-06 06:20:00,33.3,26.0,30.12,North,5,0.0,7.0,74,0.00,,,0.00,0.0,WUHU216DAVISVP2,2013-03-06 12:20:00,
2013-03-06 06:25:00,33.3,26.3,30.12,East,93,1.0,6.0,75,0.00,,,0.00,0.0,WUHU216DAVISVP2,2013-03-06 12:25:00,
2013-03-06 06:30:00,33.2,26.5,30.12,East,88,0.0,6.0,76,0.00,,,0.00,0.0,WUHU216DAVISVP2,2013-03-06 12:30:00,
2013-03-06 06:35:00,33.1,26.7,30.13,East,90,0.0,6.0,77,0.00,,,0.00,0.0,WUHU216DAVISVP2,2013-03-06 12:35:00,
2013-03-06 06:40:00,33.1,26.7,30.13,NE,49,0.0,3.0,77,0.00,,,0.00,0.0,WUHU216DAVISVP2,2013-03-06 12:40:00,
2013-03-06 06:45:00,33.1,27.0,30.13,North,355,0.0,3.0,78,0.00,,,0.00,5.0,WUHU216DAVISVP2,2013-03-06 12:45:00,
2013-03-06 06:50:00,33.0,26.6,30.13,ENE,74,0.0,3.0,77,0.00,,,0.00,9.0,WUHU216DAVISVP2,2013-03-06 12:50:00,
2013-03-06 06:55:00,33.0,26.9,30.14,East,93,0.0,4.0,78,0.00,,,0.00,28.0,WUHU216DAVISVP2,2013-03-06 12:55:00,
2013-03-06 07:00:00,33.0,27.2,30.14,ESE,114,0.0,4.0,79,0.00,,,0.00,53.0,WUHU216DAVISVP2,2013-03-06 13:00:00,
2013-03-06 07:05:00,33.1,26.7,30.13,NE,42,3.0,5.0,77,0.00,,,0.00,111.0,WUHU216DAVISVP2,2013-03-06 13:05:00,
2013-03-06 07:10:00,33.3,26.9,30.14,SSE,150,0.0,5.0,77,0.00,,,0.00,97.0,WUHU216DAVISVP2,2013-03-06 13:10:00,
2013-03-06 07:15:00,33.5,27.1,30.14,ESE,108,0.0,4.0,77,0.00,,,0.00,107.0,WUHU216DAVISVP2,2013-03-06 13:15:00,
2013-03-06 07:20:00,33.8,27.4,30.14,ESE,102,5.0,5.0,77,0.00,,,0.00,132.0,WUHU216DAVISVP2,2013-03-06 13:20:00,
2013-03-06 07:25:00,33.9,27.5,30.15,SE,140,0.0,5.0,77,0.00,,,0.00,74.0,WUHU216DAVISVP2,2013-03-06 13:25:00,
2013-03-06 07:30:00,33.9,27.1,30.15,NE,47,2.0,3.0,76,0.00,,,0.00,137.0,WUHU216DAVISVP2,2013-03-06 13:30:00,
2013-03-06 07:35:00,34.0,27.6,30.16,East,100,0.0,5.0,77,0.00,,,0.00,149.0,WUHU216DAVISVP2,2013-03-06 13:35:00,
2013-03-06 07:40:00,34.1,27.6,30.16,ENE,76,3.0,5.0,77,0.00,,,0.00,98.0,WUHU216DAVISVP2,2013-03-06 13:40:00,
2013-03-06 07:45:00,34.1,27.7,30.16,NE,35,3.0,10.0,77,0.00,,,0.00,70.0,WUHU216DAVISVP2,2013-03-06 13:45:00,
2013-03-06 07:50:00,34.1,27.7,30.17,ESE,113,0.0,10.0,77,0.00,,,0.00,58.0,WUHU216DAVISVP2,2013-03-06 13:50:00,
2013-03-06 07:55:00,34.1,27.4,30.17,East,101,1.0,6.0,76,0.00,,,0.00,72.0,WUHU216DAVISVP2,2013-03-06 13:55:00,
2013-03-06 08:00:00,34.1,27.7,30.17,ENE,73,1.0,2.0,77,0.00,,,0.00,81.0,WUHU216DAVISVP2,2013-03-06 14:00:00,
2013-03-06 08:05:00,34.1,27.7,30.17,ESE,115,3.0,5.0,77,0.00,,,0.00,83.0,WUHU216DAVISVP2,2013-03-06 14:05:00,
2013-03-06 08:10:00,34.1,28.0,30.18,SSE,163,0.0,5.0,78,0.00,,,0.00,90.0,WUHU216DAVISVP2,2013-03-06 14:10:00,
2013-03-06 08:15:00,34.1,27.7,30.18,South,190,0.0,7.0,77,0.00,,,0.00,88.0,WUHU216DAVISVP2,2013-03-06 14:15:00,
2013-03-06 08:20:00,34.2,27.8,30.18,SSE,167,0.0,7.0,77,0.00,,,0.00,113.0,WUHU216DAVISVP2,2013-03-06 14:20:00,
2013-03-06 08:25:00,34.4,28.3,30.18,East,80,0.0,4.0,78,0.00,,,0.00,207.0,WUHU216DAVISVP2,2013-03-06 14:25:00,
2013-03-06 08:30:00,34.8,28.3,30.18,SSE,153,2.0,4.0,77,0.00,,,0.00,272.0,WUHU216DAVISVP2,2013-03-06 14:30:00,
2013-03-06 08:35:00,35.3,28.8,30.18,East,97,0.0,3.0,77,0.00,,,0.00,267.0,WUHU216DAVISVP2,2013-03-06 14:35:00,
2013-03-06 08:40:00,35.7,29.2,30.18,East,96,2.0,3.0,77,0.00,,,0.00,225.0,WUHU216DAVISVP2,2013-03-06 14:40:00,
2013-03-06 08:45:00,36.0,28.8,30.18,NE,47,2.0,5.0,75,0.00,,,0.00,142.0,WUHU216DAVISVP2,2013-03-06 14:45:00,
2013-03-06 08:50:00,35.9,28.7,30.19,ENE,67,3.0,5.0,75,0.00,,,0.00,100.0,WUHU216DAVISVP2,2013-03-06 14:50:00,
2013-03-06 08:55:00,35.6,28.2,30.19,East,85,2.0,6.0,74,0.00,,,0.00,90.0,WUHU216DAVISVP2,2013-03-06 14:55:00,
2013-03-06 09:00:00,35.3,28.2,30.20,NE,35,0.0,6.0,75,0.00,,,0.00,105.0,WUHU216DAVISVP2,2013-03-06 15:00:00,
2013-03-06 09:05:00,35.3,28.5,30.20,NE,43,1.0,6.0,76,0.00,,,0.00,127.0,WUHU216DAVISVP2,2013-03-06 15:05:00,
2013-03-06 09:10:00,35.3,28.5,30.21,SSE,165,0.0,7.0,76,0.00,,,0.00,151.0,WUHU216DAVISVP2,2013-03-06 15:10:00,
2013-03-06 09:15:00,35.4,28.6,30.21,East,82,1.0,7.0,76,0.00,,,0.00,163.0,WUHU216DAVISVP2,2013-03-06 15:15:00,
2013-03-06 09:20:00,35.6,28.8,30.21,NE,38,3.0,9.0,76,0.00,,,0.00,188.0,WUHU216DAVISVP2,2013-03-06 15:20:00,
2013-03-06 09:25:00,35.9,29.7,30.21,ESE,110,0.0,9.0,78,0.00,,,0.00,299.0,WUHU216DAVISVP2,2013-03-06 15:25:00,
2013-03-06 09:30:00,36.6,30.1,30.21,ENE,67,0.0,4.0,77,0.00,,,0.00,295.0,WUHU216DAVISVP2,2013-03-06 15:30:00,
2013-03-06 09:35:00,36.9,29.4,30.21,ESE,115,1.0,7.0,74,0.00,,,0.00,392.0,WUHU216DAVISVP2,2013-03-06 15:35:00,
2013-03-06 09:40:00,37.3,29.8,30.20,ESE,123,1.0,7.0,74,0.00,,,0.00,348.0,WUHU216DAVISVP2,2013-03-06 15:40:00,
2013-03-06 09:45:00,38.1,30.3,30.20,ENE,57,1.0,4.0,73,0.00,,,0.00,624.0,WUHU216DAVISVP2,2013-03-06 15:45:00,
2013-03-06 09:50:00,38.9,31.0,30.21,ENE,77,4.0,5.0,73,0.00,,,0.00,707.0,WUHU216DAVISVP2,2013-03-06 15:50:00,
2013-03-06 09:55:00,39.5,31.3,30.20,East,79,3.0,5.0,72,0.00,,,0.00,318.0,WUHU216DAVISVP2,2013-03-06 15:55:00,
2013-03-06 10:00:00,39.7,30.8,30.21,ENE,78,2.0,6.0,70,0.00,,,0.00,392.0,WUHU216DAVISVP2,2013-03-06 16:00:00,
2013-03-06 10:05:00,39.6,30.7,30.21,SE,127,1.0,6.0,70,0.00,,,0.00,272.0,WUHU216DAVISVP2,2013-03-06 16:05:00,
2013-03-06 10:10:00,39.2,30.3,30.22,ENE,58,2.0,6.0,70,0.00,,,0.00,211.0,WUHU216DAVISVP2,2013-03-06 16:10:00,
2013-03-06 10:15:00,38.7,29.8,30.22,East,100,1.0,6.0,70,0.00,,,0.00,179.0,WUHU216DAVISVP2,2013-03-06 16:15:00,
2013-03-06 10:20:00,38.3,30.1,30.22,ENE,64,0.0,6.0,72,0.00,,,0.00,179.0,WUHU216DAVISVP2,2013-03-06 16:20:00,
2013-03-06 10:25:00,38.0,29.8,30.22,ENE,57,1.0,6.0,72,0.00,,,0.00,199.0,WUHU216DAVISVP2,2013-03-06 16:25:00,
2013-03-06 10:30:00,37.9,29.7,30.23,North,360,0.0,6.0,72,0.00,,,0.00,322.0,WUHU216DAVISVP2,2013-03-06 16:30:00,
2013-03-06 10:35:00,38.0,30.2,30.22,NW,322,1.0,6.0,73,0.00,,,0.00,376.0,WUHU216DAVISVP2,2013-03-06 16:35:00,
2013-03-06 10:40:00,38.6,31.4,30.22,NE,54,1.0,6.0,75,0.00,,,0.00,483.0,WUHU216DAVISVP2,2013-03-06 16:40:00,
2013-03-06 10:45:00,39.7,31.5,30.22,ENE,68,1.0,8.0,72,0.00,,,0.00,960.0,WUHU216DAVISVP2,2013-03-06 16:45:00,
2013-03-06 10:50:00,40.9,32.6,30.22,NE,34,4.0,9.0,72,0.00,,,0.00,875.0,WUHU216DAVISVP2,2013-03-06 16:50:00,
2013-03-06 10:55:00,41.1,31.1,30.22,NW,304,5.0,10.0,67,0.00,,,0.00,809.0,WUHU216DAVISVP2,2013-03-06 16:55:00,
2013-03-06 11:00:00,40.9,30.9,30.22,NE,44,4.0,10.0,67,0.00,,,0.00,940.0,WUHU216DAVISVP2,2013-03-06 17:00:00,
2013-03-06 11:05:00,40.9,30.9,30.22,NE,38,2.0,10.0,67,0.00,,,0.00,578.0,WUHU216DAVISVP2,2013-03-06 17:05:00,
2013-03-06 11:10:00,40.7,31.0,30.22,ENE,65,3.0,12.0,68,0.00,,,0.00,439.0,WUHU216DAVISVP2,2013-03-06 17:10:00,
2013-03-06 11:15:00,41.2,32.2,30.22,NE,53,9.0,12.0,70,0.00,,,0.00,482.0,WUHU216DAVISVP2,2013-03-06 17:15:00,
2013-03-06 11:20:00,41.2,31.9,30.22,NNW,339,4.0,14.0,69,0.00,,,0.00,506.0,WUHU216DAVISVP2,2013-03-06 17:20:00,
2013-03-06 11:25:00,41.3,31.5,30.22,NE,47,7.0,14.0,68,0.00,,,0.00,422.0,WUHU216DAVISVP2,2013-03-06 17:25:00,
2013-03-06 11:30:00,41.3,31.3,30.22,North,360,3.0,11.0,67,0.00,,,0.00,362.0,WUHU216DAVISVP2,2013-03-06 17:30:00,
2013-03-06 11:35:00,41.4,31.7,30.22,ENE,76,4.0,9.0,68,0.00,,,0.00,582.0,WUHU216DAVISVP2,2013-03-06 17:35:00,
2013-03-06 11:40:00,41.6,31.2,30.23,NE,51,2.0,7.0,66,0.00,,,0.00,418.0,WUHU216DAVISVP2,2013-03-06 17:40:00,
2013-03-06 11:45:00,41.8,31.7,30.22,NE,46,4.0,9.0,67,0.00,,,0.00,554.0,WUHU216DAVISVP2,2013-03-06 17:45:00,
2013-03-06 11:50:00,41.7,31.2,30.22,ENE,68,4.0,9.0,66,0.00,,,0.00,466.0,WUHU216DAVISVP2,2013-03-06 17:50:00,
2013-03-06 11:55:00,41.6,31.4,30.22,North,10,3.0,9.0,67,0.00,,,0.00,473.0,WUHU216DAVISVP2,2013-03-06 17:55:00,
2013-03-06 12:00:00,41.5,31.1,30.23,NE,43,6.0,11.0,66,0.00,,,0.00,371.0,WUHU216DAVISVP2,2013-03-06 18:00:00,
2013-03-06 12:05:00,41.3,30.5,30.22,East,90,2.0,11.0,65,0.00,,,0.00,304.0,WUHU216DAVISVP2,2013-03-06 18:05:00,
2013-03-06 12:10:00,41.2,31.2,30.22,North,355,3.0,10.0,67,0.00,,,0.00,287.0,WUHU216DAVISVP2,2013-03-06 18:10:00,
2013-03-06 12:15:00,41.3,31.6,30.23,NE,54,3.0,9.0,68,0.00,,,0.00,390.0,WUHU216DAVISVP2,2013-03-06 18:15:00,
2013-03-06 12:20:00,41.8,31.7,30.22,North,355,2.0,6.0,67,0.00,,,0.00,434.0,WUHU216DAVISVP2,2013-03-06 18:20:00,
2013-03-06 12:25:00,42.1,31.6,30.22,NE,51,4.0,11.0,66,0.00,,,0.00,429.0,WUHU216DAVISVP2,2013-03-06 18:25:00,
2013-03-06 12:30:00,41.9,31.8,30.22,ENE,59,4.0,11.0,67,0.00,,,0.00,318.0,WUHU216DAVISVP2,2013-03-06 18:30:00,
2013-03-06 12:35:00,41.6,31.5,30.23,NE,42,1.0,6.0,67,0.00,,,0.00,299.0,WUHU216DAVISVP2,2013-03-06 18:35:00,
2013-03-06 12:40:00,41.5,31.4,30.22,NE,50,3.0,6.0,67,0.00,,,0.00,322.0,WUHU216DAVISVP2,2013-03-06 18:40:00,
2013-03-06 12:45:00,41.4,31.0,30.22,NE,53,6.0,10.0,66,0.00,,,0.00,316.0,WUHU216DAVISVP2,2013-03-06 18:45:00,
2013-03-06 12:50:00,41.3,30.9,30.22,NE,40,5.0,10.0,66,0.00,,,0.00,394.0,WUHU216DAVISVP2,2013-03-06 18:50:00,
2013-03-06 12:55:00,41.4,31.0,30.22,ENE,62,2.0,11.0,66,0.00,,,0.00,383.0,WUHU216DAVISVP2,2013-03-06 18:55:00,
2013-03-06 13:00:00,41.7,31.3,30.22,NE,51,0.0,11.0,66,0.00,,,0.00,313.0,WUHU216DAVISVP2,2013-03-06 19:00:00,
2013-03-06 13:05:00,41.6,31.1,30.22,NNW,335,4.0,8.0,66,0.00,,,0.00,378.0,WUHU216DAVISVP2,2013-03-06 19:05:00,
2013-03-06 13:10:00,41.7,31.2,30.22,NNE,27,4.0,8.0,66,0.00,,,0.00,434.0,WUHU216DAVISVP2,2013-03-06 19:10:00,
2013-03-06 13:15:00,41.7,31.2,30.22,NNW,344,2.0,7.0,66,0.00,,,0.00,294.0,WUHU216DAVISVP2,2013-03-06 19:15:00,
2013-03-06 13:20:00,41.7,31.2,30.22,North,349,1.0,7.0,66,0.00,,,0.00,281.0,WUHU216DAVISVP2,2013-03-06 19:20:00,
2013-03-06 13:25:00,41.6,30.7,30.22,East,94,1.0,7.0,65,0.00,,,0.00,325.0,WUHU216DAVISVP2,2013-03-06 19:25:00,
2013-03-06 13:30:00,41.8,31.3,30.22,ENE,59,5.0,8.0,66,0.00,,,0.00,366.0,WUHU216DAVISVP2,2013-03-06 19:30:00,
2013-03-06 13:35:00,41.8,30.9,30.22,NW,325,3.0,10.0,65,0.00,,,0.00,330.0,WUHU216DAVISVP2,2013-03-06 19:35:00,
2013-03-06 13:40:00,42.2,32.4,30.22,East,95,2.0,10.0,68,0.00,,,0.00,408.0,WUHU216DAVISVP2,2013-03-06 19:40:00,
2013-03-06 13:45:00,42.9,31.6,30.22,ENE,60,5.0,10.0,64,0.00,,,0.00,322.0,WUHU216DAVISVP2,2013-03-06 19:45:00,
2013-03-06 13:50:00,42.8,31.5,30.22,NE,44,5.0,10.0,64,0.00,,,0.00,390.0,WUHU216DAVISVP2,2013-03-06 19:50:00,
2013-03-06 13:55:00,42.6,31.7,30.22,NE,55,4.0,9.0,65,0.00,,,0.00,332.0,WUHU216DAVISVP2,2013-03-06 19:55:00,
2013-03-06 14:00:00,42.5,32.0,30.22,ENE,76,1.0,9.0,66,0.00,,,0.00,343.0,WUHU216DAVISVP2,2013-03-06 20:00:00,
2013-03-06 14:05:00,42.6,31.7,30.23,NE,51,0.0,7.0,65,0.00,,,0.00,294.0,WUHU216DAVISVP2,2013-03-06 20:05:00,
2013-03-06 14:10:00,42.5,31.6,30.23,East,91,3.0,7.0,65,0.00,,,0.00,241.0,WUHU216DAVISVP2,2013-03-06 20:10:00,
2013-03-06 14:15:00,42.3,31.5,30.23,East,85,3.0,6.0,65,0.00,,,0.00,234.0,WUHU216DAVISVP2,2013-03-06 20:15:00,
2013-03-06 14:20:00,42.3,31.5,30.23,East,88,2.0,4.0,65,0.00,,,0.00,216.0,WUHU216DAVISVP2,2013-03-06 20:20:00,
2013-03-06 14:25:00,42.1,32.0,30.23,ENE,73,5.0,5.0,67,0.00,,,0.00,237.0,WUHU216DAVISVP2,2013-03-06 20:25:00,
2013-03-06 14:30:00,42.0,31.5,30.23,NE,43,0.0,6.0,66,0.00,,,0.00,190.0,WUHU216DAVISVP2,2013-03-06 20:30:00,
2013-03-06 14:35:00,41.8,31.4,30.23,ESE,112,0.0,6.0,66,0.00,,,0.00,178.0,WUHU216DAVISVP2,2013-03-06 20:35:00,
2013-03-06 14:40:00,41.8,31.7,30.23,SE,135,2.0,5.0,67,0.00,,,0.00,178.0,WUHU216DAVISVP2,2013-03-06 20:40:00,
2013-03-06 14:45:00,41.8,31.7,30.24,NNW,338,2.0,5.0,67,0.00,,,0.00,178.0,WUHU216DAVISVP2,2013-03-06 20:45:00,
2013-03-06 14:50:00,41.8,31.7,30.24,East,81,0.0,5.0,67,0.00,,,0.00,163.0,WUHU216DAVISVP2,2013-03-06 20:50:00,
2013-03-06 14:55:00,41.5,31.4,30.24,ENE,75,4.0,5.0,67,0.00,,,0.00,171.0,WUHU216DAVISVP2,2013-03-06 20:55:00,
2013-03-06 15:00:00,41.5,31.8,30.24,ENE,57,2.0,5.0,68,0.00,,,0.00,158.0,WUHU216DAVISVP2,2013-03-06 21:00:00,
2013-03-06 15:05:00,41.4,31.7,30.24,East,83,1.0,4.0,68,0.00,,,0.00,144.0,WUHU216DAVISVP2,2013-03-06 21:05:00,
2013-03-06 15:10:00,41.4,31.3,30.24,NE,56,1.0,4.0,67,0.00,,,0.00,146.0,WUHU216DAVISVP2,2013-03-06 21:10:00,
2013-03-06 15:15:00,41.3,31.6,30.24,North,355,1.0,4.0,68,0.00,,,0.00,148.0,WUHU216DAVISVP2,2013-03-06 21:15:00,
2013-03-06 15:20:00,41.2,31.5,30.24,NE,56,1.0,6.0,68,0.00,,,0.00,162.0,WUHU216DAVISVP2,2013-03-06 21:20:00,
2013-03-06 15:25:00,41.0,31.0,30.24,NE,38,0.0,6.0,67,0.00,,,0.00,144.0,WUHU216DAVISVP2,2013-03-06 21:25:00,
2013-03-06 15:30:00,40.9,31.6,30.24,ENE,65,4.0,5.0,69,0.00,,,0.00,185.0,WUHU216DAVISVP2,2013-03-06 21:30:00,
2013-03-06 15:35:00,41.0,31.0,30.24,ENE,67,5.0,6.0,67,0.00,,,0.00,308.0,WUHU216DAVISVP2,2013-03-06 21:35:00,
2013-03-06 15:40:00,41.1,30.3,30.24,NE,34,4.0,9.0,65,0.00,,,0.00,114.0,WUHU216DAVISVP2,2013-03-06 21:40:00,
2013-03-06 15:45:00,40.9,30.9,30.24,NE,41,2.0,9.0,67,0.00,,,0.00,135.0,WUHU216DAVISVP2,2013-03-06 21:45:00,
2013-03-06 15:50:00,40.9,30.9,30.24,NE,42,3.0,6.0,67,0.00,,,0.00,178.0,WUHU216DAVISVP2,2013-03-06 21:50:00,
2013-03-06 15:55:00,41.0,30.2,30.24,ENE,59,5.0,7.0,65,0.00,,,0.00,202.0,WUHU216DAVISVP2,2013-03-06 21:55:00,
2013-03-06 16:00:00,40.9,30.5,30.24,NNE,33,0.0,7.0,66,0.00,,,0.00,83.0,WUHU216DAVISVP2,2013-03-06 22:00:00,
2013-03-06 16:05:00,40.9,30.5,30.24,ENE,63,5.0,6.0,66,0.00,,,0.00,227.0,WUHU216DAVISVP2,2013-03-06 22:05:00,
2013-03-06 16:10:00,41.0,30.6,30.24,NE,45,4.0,6.0,66,0.00,,,0.00,100.0,WUHU216DAVISVP2,2013-03-06 22:10:00,
2013-03-06 16:15:00,41.1,30.7,30.24,North,355,1.0,6.0,66,0.00,,,0.00,146.0,WUHU216DAVISVP2,2013-03-06 22:15:00,
2013-03-06 16:20:00,41.2,30.4,30.24,NE,51,3.0,5.0,65,0.00,,,0.00,186.0,WUHU216DAVISVP2,2013-03-06 22:20:00,
2013-03-06 16:25:00,41.2,30.8,30.24,NE,47,2.0,5.0,66,0.00,,,0.00,95.0,WUHU216DAVISVP2,2013-03-06 22:25:00,
2013-03-06 16:30:00,41.2,30.8,30.25,NE,46,4.0,5.0,66,0.00,,,0.00,76.0,WUHU216DAVISVP2,2013-03-06 22:30:00,
2013-03-06 16:35:00,41.0,31.7,30.24,NE,56,0.0,4.0,69,0.00,,,0.00,62.0,WUHU216DAVISVP2,2013-03-06 22:35:00,
2013-03-06 16:40:00,40.8,30.8,30.24,NE,54,2.0,4.0,67,0.00,,,0.00,47.0,WUHU216DAVISVP2,2013-03-06 22:40:00,
2013-03-06 16:45:00,40.7,30.3,30.24,NE,51,3.0,4.0,66,0.00,,,0.00,40.0,WUHU216DAVISVP2,2013-03-06 22:45:00,
2013-03-06 16:50:00,40.5,30.1,30.24,NNE,29,1.0,4.0,66,0.00,,,0.00,30.0,WUHU216DAVISVP2,2013-03-06 22:50:00,
2013-03-06 16:55:00,40.3,29.9,30.24,NE,41,0.0,4.0,66,0.00,,,0.00,26.0,WUHU216DAVISVP2,2013-03-06 22:55:00,
2013-03-06 17:00:00,40.1,29.7,30.25,ENE,65,0.0,4.0,66,0.00,,,0.00,25.0,WUHU216DAVISVP2,2013-03-06 23:00:00,
2013-03-06 17:05:00,40.0,30.0,30.25,ENE,65,0.0,2.0,67,0.00,,,0.00,25.0,WUHU216DAVISVP2,2013-03-06 23:05:00,
2013-03-06 17:10:00,39.9,30.3,30.25,ENE,67,3.0,3.0,68,0.00,,,0.00,23.0,WUHU216DAVISVP2,2013-03-06 23:10:00,
2013-03-06 17:15:00,39.8,30.5,30.25,NE,56,0.0,4.0,69,0.00,,,0.00,18.0,WUHU216DAVISVP2,2013-03-06 23:15:00,
2013-03-06 17:20:00,39.7,30.4,30.25,NNE,15,0.0,4.0,69,0.00,,,0.00,16.0,WUHU216DAVISVP2,2013-03-06 23:20:00,
2013-03-06 17:25:00,39.6,31.0,30.25,NNE,15,0.0,2.0,71,0.00,,,0.00,14.0,WUHU216DAVISVP2,2013-03-06 23:25:00,
2013-03-06 17:30:00,39.4,31.2,30.25,NNE,15,0.0,1.0,72,0.00,,,0.00,12.0,WUHU216DAVISVP2,2013-03-06 23:30:00,
2013-03-06 17:35:00,39.2,31.3,30.25,NNE,15,0.0,0.0,73,0.00,,,0.00,9.0,WUHU216DAVISVP2,2013-03-06 23:35:00,
2013-03-06 17:40:00,38.9,31.4,30.25,NNE,15,0.0,0.0,74,0.00,,,0.00,7.0,WUHU216DAVISVP2,2013-03-06 23:40:00,
2013-03-06 17:45:00,38.7,31.2,30.26,NNE,15,0.0,0.0,74,0.00,,,0.00,0.0,WUHU216DAVISVP2,2013-03-06 23:45:00,
2013-03-06 17:50:00,38.4,31.2,30.26,NNE,15,0.0,0.0,75,0.00,,,0.00,0.0,WUHU216DAVISVP2,2013-03-06 23:50:00,
2013-03-06 17:55:00,38.1,30.9,30.26,NNE,15,0.0,0.0,75,0.00,,,0.00,0.0,WUHU216DAVISVP2,2013-03-06 23:55:00,
2013-03-06 18:00:00,37.8,31.0,30.26,NNE,15,0.0,1.0,76,0.00,,,0.00,0.0,WUHU216DAVISVP2,2013-03-07 00:00:00,
2013-03-06 18:05:00,37.6,30.8,30.26,NNE,15,0.0,1.0,76,0.00,,,0.00,0.0,WUHU216DAVISVP2,2013-03-07 00:05:00,
2013-03-06 18:10:00,37.3,30.5,30.26,NNE,15,0.0,0.0,76,0.00,,,0.00,0.0,WUHU216DAVISVP2,2013-03-07 00:10:00,
2013-03-06 18:15:00,37.1,30.6,30.26,NNE,15,0.0,0.0,77,0.00,,,0.00,0.0,WUHU216DAVISVP2,2013-03-07 00:15:00,
2013-03-06 18:20:00,36.8,30.6,30.26,NNE,15,0.0,0.0,78,0.00,,,0.00,0.0,WUHU216DAVISVP2,2013-03-07 00:20:00,
2013-03-06 18:25:00,36.5,30.0,30.26,NNE,15,0.0,0.0,77,0.00,,,0.00,0.0,WUHU216DAVISVP2,2013-03-07 00:25:00,
2013-03-06 18:30:00,36.4,29.9,30.26,NNE,15,0.0,1.0,77,0.00,,,0.00,0.0,WUHU216DAVISVP2,2013-03-07 00:30:00,
2013-03-06 18:35:00,36.2,29.7,30.26,NNE,15,0.0,1.0,77,0.00,,,0.00,0.0,WUHU216DAVISVP2,2013-03-07 00:35:00,
2013-03-06 18:40:00,36.0,29.8,30.26,North,360,0.0,1.0,78,0.00,,,0.00,0.0,WUHU216DAVISVP2,2013-03-07 00:40:00,
2013-03-06 18:45:00,35.9,29.7,30.26,North,360,0.0,1.0,78,0.00,,,0.00,0.0,WUHU216DAVISVP2,2013-03-07 00:45:00,
2013-03-06 18:50:00,35.7,29.8,30.26,North,360,0.0,1.0,79,0.00,,,0.00,0.0,WUHU216DAVISVP2,2013-03-07 00:50:00,
2013-03-06 18:55:00,35.6,29.4,30.26,North,360,0.0,1.0,78,0.00,,,0.00,0.0,WUHU216DAVISVP2,2013-03-07 00:55:00,
2013-03-06 19:00:00,35.5,29.6,30.26,North,360,0.0,1.0,79,0.00,,,0.00,0.0,WUHU216DAVISVP2,2013-03-07 01:00:00,
2013-03-06 19:05:00,35.3,29.5,30.26,North,360,0.0,0.0,79,0.00,,,0.00,0.0,WUHU216DAVISVP2,2013-03-07 01:05:00,
2013-03-06 19:10:00,35.2,29.4,30.26,North,360,0.0,0.0,79,0.00,,,0.00,0.0,WUHU216DAVISVP2,2013-03-07 01:10:00,
2013-03-06 19:15:00,35.1,29.3,30.26,North,360,0.0,0.0,79,0.00,,,0.00,0.0,WUHU216DAVISVP2,2013-03-07 01:15:00,
2013-03-06 19:20:00,35.0,29.2,30.26,North,360,0.0,0.0,79,0.00,,,0.00,0.0,WUHU216DAVISVP2,2013-03-07 01:20:00,
2013-03-06 19:25:00,34.9,29.1,30.26,North,360,0.0,0.0,79,0.00,,,0.00,0.0,WUHU216DAVISVP2,2013-03-07 01:25:00,
2013-03-06 19:30:00,34.8,29.0,30.26,North,360,0.0,0.0,79,0.00,,,0.00,0.0,WUHU216DAVISVP2,2013-03-07 01:30:00,
2013-03-06 19:35:00,34.6,28.8,30.26,North,360,0.0,0.0,79,0.00,,,0.00,0.0,WUHU216DAVISVP2,2013-03-07 01:35:00,
2013-03-06 19:40:00,34.6,28.8,30.26,North,360,0.0,0.0,79,0.00,,,0.00,0.0,WUHU216DAVISVP2,2013-03-07 01:40:00,
2013-03-06 19:45:00,34.4,28.9,30.26,North,360,0.0,0.0,80,0.00,,,0.00,0.0,WUHU216DAVISVP2,2013-03-07 01:45:00,
2013-03-06 19:50:00,34.3,28.8,30.26,North,360,0.0,0.0,80,0.00,,,0.00,0.0,WUHU216DAVISVP2,2013-03-07 01:50:00,
2013-03-06 19:55:00,34.2,28.7,30.26,North,360,0.0,0.0,80,0.00,,,0.00,0.0,WUHU216DAVISVP2,2013-03-07 01:55:00,
2013-03-06 20:00:00,34.2,28.7,30.26,North,360,0.0,1.0,80,0.00,,,0.00,0.0,WUHU216DAVISVP2,2013-03-07 02:00:00,
2013-03-06 20:05:00,34.1,28.6,30.26,North,360,0.0,1.0,80,0.00,,,0.00,0.0,WUHU216DAVISVP2,2013-03-07 02:05:00,
2013-03-06 20:10:00,34.1,28.6,30.26,North,360,0.0,0.0,80,0.00,,,0.00,0.0,WUHU216DAVISVP2,2013-03-07 02:10:00,
2013-03-06 20:15:00,34.0,28.8,30.26,North,360,0.0,0.0,81,0.00,,,0.00,0.0,WUHU216DAVISVP2,2013-03-07 02:15:00,
2013-03-06 20:20:00,33.9,28.7,30.26,North,360,0.0,0.0,81,0.00,,,0.00,0.0,WUHU216DAVISVP2,2013-03-07 02:20:00,
2013-03-06 20:25:00,33.8,28.6,30.26,North,360,0.0,0.0,81,0.00,,,0.00,0.0,WUHU216DAVISVP2,2013-03-07 02:25:00,
2013-03-06 20:30:00,33.8,28.6,30.26,North,360,0.0,0.0,81,0.00,,,0.00,0.0,WUHU216DAVISVP2,2013-03-07 02:30:00,
2013-03-06 20:35:00,33.8,28.6,30.26,North,360,0.0,1.0,81,0.00,,,0.00,0.0,WUHU216DAVISVP2,2013-03-07 02:35:00,
2013-03-06 20:40:00,33.8,28.3,30.26,North,360,0.0,1.0,80,0.00,,,0.00,0.0,WUHU216DAVISVP2,2013-03-07 02:40:00,
2013-03-06 20:45:00,33.9,28.4,30.26,North,360,0.0,1.0,80,0.00,,,0.00,0.0,WUHU216DAVISVP2,2013-03-07 02:45:00,
2013-03-06 20:50:00,33.8,28.3,30.26,North,360,0.0,1.0,80,0.00,,,0.00,0.0,WUHU216DAVISVP2,2013-03-07 02:50:00,
2013-03-06 20:55:00,33.8,29.7,30.26,North,360,0.0,1.0,85,0.00,,,0.00,0.0,WUHU216DAVISVP2,2013-03-07 02:55:00,
2013-03-06 21:00:00,33.8,28.0,30.26,North,360,0.0,1.0,79,0.00,,,0.00,0.0,WUHU216DAVISVP2,2013-03-07 03:00:00,
2013-03-06 21:05:00,33.7,28.2,30.27,North,360,0.0,1.0,80,0.00,,,0.00,0.0,WUHU216DAVISVP2,2013-03-07 03:05:00,
2013-03-06 21:10:00,33.5,28.3,30.27,North,360,0.0,1.0,81,0.00,,,0.00,0.0,WUHU216DAVISVP2,2013-03-07 03:10:00,
2013-03-06 21:15:00,33.3,28.4,30.27,North,360,0.0,1.0,82,0.00,,,0.00,0.0,WUHU216DAVISVP2,2013-03-07 03:15:00,
2013-03-06 21:20:00,33.0,28.1,30.27,North,360,0.0,0.0,82,0.00,,,0.00,0.0,WUHU216DAVISVP2,2013-03-07 03:20:00,
2013-03-06 21:25:00,32.8,27.6,30.27,North,360,0.0,1.0,81,0.00,,,0.00,0.0,WUHU216DAVISVP2,2013-03-07 03:25:00,
2013-03-06 21:30:00,32.8,27.9,30.27,North,360,0.0,1.0,82,0.00,,,0.00,0.0,WUHU216DAVISVP2,2013-03-07 03:30:00,
2013-03-06 21:35:00,32.6,27.7,30.27,North,360,0.0,0.0,82,0.00,,,0.00,0.0,WUHU216DAVISVP2,2013-03-07 03:35:00,
2013-03-06 21:40:00,32.5,27.6,30.27,North,5,0.0,2.0,82,0.00,,,0.00,0.0,WUHU216DAVISVP2,2013-03-07 03:40:00,
2013-03-06 21:45:00,32.5,27.6,30.27,North,5,0.0,2.0,82,0.00,,,0.00,0.0,WUHU216DAVISVP2,2013-03-07 03:45:00,
2013-03-06 21:50:00,32.4,27.5,30.28,North,5,0.0,1.0,82,0.00,,,0.00,0.0,WUHU216DAVISVP2,2013-03-07 03:50:00,
2013-03-06 21:55:00,32.3,27.4,30.28,North,5,0.0,1.0,82,0.00,,,0.00,0.0,WUHU216DAVISVP2,2013-03-07 03:55:00,
2013-03-06 22:00:00,32.2,27.3,30.28,North,5,0.0,0.0,82,0.00,,,0.00,0.0,WUHU216DAVISVP2,2013-03-07 04:00:00,
2013-03-06 22:05:00,32.1,27.5,30.28,North,5,0.0,0.0,83,0.00,,,0.00,0.0,WUHU216DAVISVP2,2013-03-07 04:05:00,
2013-03-06 22:10:00,31.9,27.3,30.28,North,5,0.0,0.0,83,0.00,,,0.00,0.0,WUHU216DAVISVP2,2013-03-07 04:10:00,
2013-03-06 22:15:00,31.7,27.4,30.29,North,5,0.0,0.0,84,0.00,,,0.00,0.0,WUHU216DAVISVP2,2013-03-07 04:15:00,
2013-03-06 22:20:00,31.5,27.5,30.29,North,5,0.0,1.0,85,0.00,,,0.00,0.0,WUHU216DAVISVP2,2013-03-07 04:20:00,
2013-03-06 22:25:00,31.4,27.4,30.29,North,5,0.0,1.0,85,0.00,,,0.00,0.0,WUHU216DAVISVP2,2013-03-07 04:25:00,
2013-03-06 22:30:00,31.2,27.2,30.28,North,5,0.0,0.0,85,0.00,,,0.00,0.0,WUHU216DAVISVP2,2013-03-07 04:30:00,
2013-03-06 22:35:00,31.1,27.1,30.28,North,5,0.0,0.0,85,0.00,,,0.00,0.0,WUHU216DAVISVP2,2013-03-07 04:35:00,
2013-03-06 22:40:00,31.0,27.0,30.28,North,5,0.0,0.0,85,0.00,,,0.00,0.0,WUHU216DAVISVP2,2013-03-07 04:40:00,
2013-03-06 22:45:00,30.9,26.9,30.28,North,5,0.0,0.0,85,0.00,,,0.00,0.0,WUHU216DAVISVP2,2013-03-07 04:45:00,
2013-03-06 22:50:00,30.9,26.9,30.28,North,5,0.0,0.0,85,0.00,,,0.00,0.0,WUHU216DAVISVP2,2013-03-07 04:50:00,
2013-03-06 22:55:00,30.8,27.1,30.28,North,5,0.0,0.0,86,0.00,,,0.00,0.0,WUHU216DAVISVP2,2013-03-07 04:55:00,
2013-03-06 23:00:00,30.7,27.0,30.28,North,5,0.0,0.0,86,0.00,,,0.00,0.0,WUHU216DAVISVP2,2013-03-07 05:00:00,
2013-03-06 23:01:00,30.7,27.0,30.28,North,5,0.0,0.0,86,0.00,,,0.00,0.0,WUHU216DAVISVP2,2013-03-07 05:01:00,
2013-03-06 23:06:00,30.6,26.9,30.28,North,5,0.0,0.0,86,0.00,,,0.00,0.0,WUHU216DAVISVP2,2013-03-07 05:06:00,
2013-03-06 23:11:00,30.5,26.8,30.28,North,5,0.0,0.0,86,0.00,,,0.00,0.0,WUHU216DAVISVP2,2013-03-07 05:11:00,
2013-03-06 23:16:00,30.4,26.7,30.28,North,5,0.0,0.0,86,0.00,,,0.00,0.0,WUHU216DAVISVP2,2013-03-07 05:16:00,
2013-03-06 23:21:00,30.3,26.9,30.28,North,5,0.0,0.0,87,0.00,,,0.00,0.0,WUHU216DAVISVP2,2013-03-07 05:21:00,
2013-03-06 23:26:00,30.3,26.9,30.28,North,5,0.0,0.0,87,0.00,,,0.00,0.0,WUHU216DAVISVP2,2013-03-07 05:26:00,
2013-03-06 23:31:00,30.3,26.9,30.28,North,5,0.0,0.0,87,0.00,,,0.00,0.0,WUHU216DAVISVP2,2013-03-07 05:31:00,
2013-03-06 23:36:00,30.2,26.8,30.28,North,5,0.0,0.0,87,0.00,,,0.00,0.0,WUHU216DAVISVP2,2013-03-07 05:36:00,
2013-03-06 23:41:00,30.2,26.8,30.28,North,5,0.0,0.0,87,0.00,,,0.00,0.0,WUHU216DAVISVP2,2013-03-07 05:41:00,
2013-03-06 23:46:00,30.2,26.8,30.29,North,5,0.0,0.0,87,0.00,,,0.00,0.0,WUHU216DAVISVP2,2013-03-07 05:46:00,
2013-03-06 23:51:00,30.2,26.8,30.29,North,5,0.0,0.0,87,0.00,,,0.00,0.0,WUHU216DAVISVP2,2013-03-07 05:51:00,
2013-03-06 23:56:00,30.1,26.7,30.29,North,5,0.0,0.0,87,0.00,,,0.00,0.0,WUHU216DAVISVP2,2013-03-07 05:56:00,